Regional Weather Roundup
Issued by NWS Newport/Morehead, NC

Current Version | Previous Version | Text Only | Print | Product List | Glossary On
Versions: 1 2 3 4 5 6 7 8 9 10 11 12 13 14 15 16 17 18 19 20 21 22 23 24 25 26 27 28 29 30 31 32 33 34 35 36 37 38 39 40 41 42 43 44 45 46 47 48 49 50
000 ASUS42 KMHX 261625 RWRMHX WEATHER ROUNDUP FOR EASTERN NORTH CAROLINA NATIONAL WEATHER SERVICE NEWPORT/MOREHEAD CITY NC 1200 PM EDT TUE MAY 26 2015 NOTE: "FAIR" INDICATES FEW OR NO CLOUDS BELOW 12,000 FEET WITH NO SIGNIFICANT WEATHER AND/OR OBSTRUCTIONS TO VISIBILITY NCZ015>017-031-032-045>047-102-103-261700- NORTH COAST CITY SKY/WX TMP DP RH WIND PRES REMARKS EDENTON N/A 80 65 58 SW3 30.31F ELIZABETH CITY MOSUNNY 79 64 60 S12 30.31F KITTY HAWK PTSUNNY 78 66 68 S9 30.32F MANTEO PTSUNNY 78 67 69 S16G22 30.33S $$ NCZ045>047-081-094-103-104-261700- CENTRAL COAST CITY SKY/WX TMP DP RH WIND PRES REMARKS FRISCO CLOUDY 76 64 66 S13 30.35S SWANQUARTER N/A 81 N/A N/A S8G17 30.30S $$ NCZ095-097-098-100-101-261700- SOUTHERN COAST CITY SKY/WX TMP DP RH WIND PRES REMARKS BEAUFORT MOSUNNY 79 69 71 SE14 30.33F CEDAR ISLAND N/A 79 N/A N/A S12G17 30.36F JACKSONVILLE PTSUNNY 80 67 64 S9 30.31F PINEY ISLAND CLOUDY N/A N/A N/A SW8G20 30.32F WILMINGTON PTSUNNY 82 70 66 S13 30.30F $$ NCZ011>013-027>030-043-044-078>080-089-090>093-098-261700- COASTAL PLAIN CITY SKY/WX TMP DP RH WIND PRES REMARKS AHOSKIE SUNNY 79 64 59 S7 30.30F CLINTON MOSUNNY 81 71 73 CALM 30.31F ELIZABETHTOWN PTSUNNY 82 69 65 CALM 30.28F GOLDSBORO MOSUNNY 81 68 65 VRB5 30.28F GREENVILLE MOSUNNY 81 64 57 S6 30.31F HAVELOCK PTSUNNY 82 66 58 SE8 30.33F KENANSVILLE CLOUDY 79 67 67 CALM 30.32F KINSTON MOSUNNY 82 66 57 SE9 30.32S NEW BERN PTSUNNY 82 66 58 S8 30.33F RICHLANDS PTSUNNY 82 66 57 SE12 30.31F ROCKY MOUNT MOSUNNY 83 64 52 S10 30.30F WASHINGTON SUNNY 82 64 53 SW3 30.31F WHITEVILLE PTSUNNY 81 69 65 S3 30.29S $$ AMZ130-135-150-152-154-156-158-170-250-252-270-ANZ085-086-088-633-658-670-261700- MARINE OBSERVATIONS STATION/POSITION TIME TEMP WIND PRES WAVE SWELL AIR SEA DIR/SP/G HT/PER HT/PER (UTC) (F) (DEG/KT/KT) (MB) (FT/S) (FT/S) CHESAPEAKE LIGHT 1600 68 160/ 16/ 16 1027.0 64 E VA BEACH 1550 67 65 170/ 6/ 6 1027.2 2/ 6 2/ 6 DUCK 1600 72 61 120/ 11/ 14 1025.9 2 E DUCK 1511 66 N/A 2/ 5 OREGON INLET 1600 76 76 170/ 14/ 17 1027.4 13E OREGON INLT 1600 68 N/A 3/ 5 HATTERAS CG 1600 77 74 170/ 10/ 14 1027.1 DIAMOND BUOY 1550 75 77 170/ 14/ 14 1027.8 3/ 5 2/ 6 CAPE LOOKOUT 1600 75 150/ 10/ 11 1026.9 BEAUFORT LAB 1600 77 74 170/ 10/ 12 1026.3 27 SE WRIGHTSVLE 1600 74 76 170/ 12/ 16 N/A 5 SE WRIGHTSVLE 1508 77 76 160/ 12/ 16 1026.5 225 S CAPE HAT 1550 74 74 110/ 10/ 12 1027.7 3/ 6 3/ 6 41 SE CHARLESTON 1550 78 77 290/ 4/ 4 1025.2 3/ 6 2/ 6 $$

USA.gov is the U.S. government's official web portal to all federal, state and local government web resources and services.